| time (UTC) | temp C | wind direction | speed KPH | gust KPH | rain 1hr cm | rain 24hr cm | rain mn cm | humidity % | barometer mb |
| 20260503210048 | 27 | 342 | 1.6 | 0.0 | 0.00 | 0.00 | 0.00 | 38 | 1009.9 |
| 20260503204547 | 27 | 90 | 0.0 | 0.0 | 0.00 | 0.00 | 0.00 | 40 | 1010.0 |
| 20260503203031 | 26 | 326 | 0.0 | 0.0 | 0.00 | 0.00 | 0.00 | 42 | 1010.2 |
| 20260503201526 | 26 | 333 | 3.2 | 0.0 | 0.00 | 0.00 | 0.00 | 41 | 1010.5 |
| 20260503200022 | 26 | 337 | 1.6 | 0.0 | 0.00 | 0.00 | 0.00 | 44 | 1010.7 |
| 20260503194522 | 26 | 337 | 1.6 | 0.0 | 0.00 | 0.00 | 0.00 | 44 | 1010.7 |
| 20260503193013 | 25 | 298 | 1.6 | 0.0 | 0.00 | 0.00 | 0.00 | 45 | 1010.8 |
| 20260503191510 | 25 | 360 | 1.6 | 0.0 | 0.00 | 0.00 | 0.00 | 47 | 1011.3 |
| 20260503190006 | 25 | 61 | 0.0 | 0.0 | 0.00 | 0.00 | 0.00 | 48 | 1011.5 |
| 20260503184602 | 23 | 65 | 3.2 | 0.0 | 0.00 | 0.00 | 0.00 | 49 | 1011.7 |
| 20260503183113 | 23 | 329 | 3.2 | 0.0 | 0.00 | 0.00 | 0.00 | 49 | 1011.8 |
| 20260503181552 | 23 | 319 | 1.6 | 0.0 | 0.00 | 0.00 | 0.00 | 52 | 1012.0 |
| 20260503180048 | 23 | 346 | 1.6 | 0.0 | 0.00 | 0.00 | 0.00 | 54 | 1012.1 |
| 20260503174543 | 22 | 355 | 0.0 | 0.0 | 0.00 | 0.00 | 0.00 | 54 | 1012.1 |
| 20260503173107 | 21 | 98 | 1.6 | 0.0 | 0.00 | 0.00 | 0.00 | 56 | 1012.2 |
| 20260503171534 | 21 | 360 | 1.6 | 0.0 | 0.00 | 0.00 | 0.00 | 58 | 1012.1 |
| 20260503081600 | 11 | 323 | 0.0 | 0.0 | 0.00 | 0.00 | 0.00 | 19 | 1013.1 |
| 20260503071550 | 12 | 323 | 0.0 | 0.0 | 0.00 | 0.00 | 0.00 | 33 | 1013.0 |
| 20260503054532 | 13 | 323 | 0.0 | 0.0 | 0.00 | 0.00 | 0.00 | 61 | 1013.0 |
| 20260503053030 | 14 | 323 | 0.0 | 0.0 | 0.00 | 0.00 | 0.00 | 62 | 1012.9 |
| 20260503051516 | 15 | 323 | 0.0 | 0.0 | 0.00 | 0.00 | 0.00 | 65 | 1012.9 |
| 20260503050013 | 15 | 323 | 0.0 | 0.0 | 0.00 | 0.00 | 0.00 | 66 | 1012.9 |
| 20260503044508 | 16 | 323 | 0.0 | 0.0 | 0.00 | 0.00 | 0.00 | 66 | 1012.7 |
| 20260503043007 | 17 | 323 | 0.0 | 0.0 | 0.00 | 0.00 | 0.00 | 64 | 1012.6 |
| 20260503041608 | 17 | 323 | 0.0 | 0.0 | 0.00 | 0.00 | 0.00 | 62 | 1012.3 |
| 20260503040059 | 18 | 323 | 0.0 | 0.0 | 0.00 | 0.00 | 0.00 | 60 | 1012.0 |
| 20260503034605 | 18 | 323 | 0.0 | 0.0 | 0.00 | 0.00 | 0.00 | 59 | 1011.7 |
| 20260503033049 | 19 | 323 | 0.0 | 0.0 | 0.00 | 0.00 | 0.00 | 55 | 1011.8 |
| 20260503031544 | 20 | 323 | 0.0 | 0.0 | 0.00 | 0.00 | 0.00 | 54 | 1011.6 |
| 20260503030050 | 21 | 323 | 0.0 | 0.0 | 0.00 | 0.00 | 0.00 | 52 | 1011.3 |
| 20260503024533 | 21 | 51 | 0.0 | 0.0 | 0.00 | 0.00 | 0.00 | 51 | 1011.3 |
| 20260503023028 | 22 | 46 | 0.0 | 0.0 | 0.00 | 0.00 | 0.00 | 51 | 1011.1 |
| 20260503021526 | 22 | 51 | 0.0 | 0.0 | 0.00 | 0.00 | 0.00 | 51 | 1011.1 |
| 20260503020020 | 22 | 67 | 0.0 | 0.0 | 0.00 | 0.00 | 0.00 | 48 | 1011.0 |
| 20260503014518 | 22 | 66 | 0.0 | 0.0 | 0.00 | 0.00 | 0.00 | 48 | 1011.1 |
| 20260503013013 | 22 | 325 | 1.6 | 0.0 | 0.00 | 0.00 | 0.00 | 47 | 1011.1 |
| 20260503011506 | 22 | 315 | 1.6 | 0.0 | 0.00 | 0.00 | 0.00 | 46 | 1011.1 |
| 20260503010002 | 22 | 337 | 1.6 | 0.0 | 0.00 | 0.00 | 0.00 | 46 | 1011.2 |
| 20260503004601 | 23 | 72 | 1.6 | 0.0 | 0.00 | 0.00 | 0.00 | 48 | 1011.4 |
| 20260503003054 | 23 | 63 | 1.6 | 0.0 | 0.00 | 0.00 | 0.00 | 48 | 1011.4 |
| 20260503001550 | 23 | 339 | 1.6 | 0.0 | 0.00 | 0.00 | 0.00 | 49 | 1011.3 |
| 20260503000045 | 23 | 57 | 0.0 | 0.0 | 0.00 | 0.00 | 0.00 | 49 | 1011.4 |
| 20260502234541 | 23 | 330 | 0.0 | 0.0 | 0.00 | 0.00 | 0.00 | 49 | 1011.4 |
| 20260502233042 | 23 | 347 | 1.6 | 0.0 | 0.00 | 0.00 | 0.00 | 48 | 1011.7 |
| 20260502231533 | 23 | 336 | 1.6 | 0.0 | 0.00 | 0.00 | 0.00 | 44 | 1012.0 |
| 20260502230027 | 23 | 42 | 1.6 | 0.0 | 0.00 | 0.00 | 0.00 | 49 | 1012.1 |
| 20260502224523 | 23 | 332 | 3.2 | 0.0 | 0.00 | 0.00 | 0.00 | 49 | 1012.2 |
| 20260502223019 | 23 | 308 | 3.2 | 0.0 | 0.00 | 0.00 | 0.00 | 47 | 1012.4 |
| 20260502221514 | 23 | 61 | 0.0 | 0.0 | 0.00 | 0.00 | 0.00 | 48 | 1012.6 |
| 20260502220011 | 22 | 42 | 1.6 | 0.0 | 0.00 | 0.00 | 0.00 | 51 | 1012.7 |
| 20260502214505 | 22 | 347 | 3.2 | 0.0 | 0.00 | 0.00 | 0.00 | 52 | 1013.0 |
| 20260502213001 | 22 | 339 | 3.2 | 0.0 | 0.00 | 0.00 | 0.00 | 52 | 1013.3 |
| 20260502211600 | 22 | 284 | 0.0 | 0.0 | 0.00 | 0.00 | 0.00 | 55 | 1013.2 |